User: anonymous   Login
Location: Christianberg
(48.9086°N, 14.0209°E)
Time: 17:01:25
(UTC+00:00)
Language:

FALCON 9 DEB - Orbit

View from above orbital plane
View from above orbital plane
View from above satellite
View from above satellite

Ground track
Ground track

The orbit data is extracted from the following two-line orbital elements,

1 44295U 19029BN  21259.12976369  .00005036  00000-0  10680-3 0  9999
2 44295  53.0001 107.0303 0009928  91.8736 268.3407 15.46924189131948
Epoch (UTC): 16 September 2021 03:06:51
Eccentricity: 0.0009928
inclination: 53.0001°
perigee height: 419 km
apogee height: 432 km
right ascension of ascending node: 107.0303°
argument of perigee: 91.8736°
revolutions per day: 15.46924189
mean anomaly at epoch: 268.3407°
orbit number at epoch: 13194

The dashed part of the orbit path shows where the satellite is in the earth's shadow,  

DLR